Location: Shoshoni
(43.2355°N, 108.1106°W)
Time: 17:20:24
(UTC-06:00)

Tiangong 2 - Visible Passes

Search period start: 15 July 2018 00:00
Search period end: 25 July 2018 00:00
Orbit: 386 x 394 km, 42.8° (Epoch: 15 July)

Date Brightness Start Highest point End Pass type
(mag) Time Alt. Az. Time Alt. Az. Time Alt. Az.
15 Jul 0.9 22:43:29 10° W 22:46:40 85° S 22:47:40 40° E visible
16 Jul 1.0 21:45:49 10° W 21:48:59 80° S 21:52:10 10° E visible
16 Jul 2.1 23:22:40 10° W 23:24:49 38° W 23:24:49 38° W visible
17 Jul 0.9 22:25:00 10° W 22:28:10 79° S 22:29:34 30° ESE visible
18 Jul 1.0 21:27:18 10° W 21:30:29 85° S 21:33:40 10° E visible
18 Jul 1.9 23:04:11 10° W 23:06:37 39° SW 23:06:37 39° SW visible
19 Jul 1.1 22:06:28 10° W 22:09:37 63° SSW 22:11:19 24° ESE visible
20 Jul 2.3 22:45:47 10° W 22:48:20 29° SW 22:48:20 29° SW visible
21 Jul 1.7 21:47:57 10° W 21:51:00 43° SSW 21:53:03 18° SE visible
22 Jul 3.0 22:27:36 10° WSW 22:29:51 18° SSW 22:30:06 18° SSW visible
23 Jul 2.5 21:29:31 10° W 21:32:19 27° SSW 21:34:52 11° SE visible
24 Jul 3.7 22:10:34 10° SW 22:11:00 10° SW 22:11:25 10° SSW visible
